[[{"header":{"parameterUnit":"m.s-1","parameterCategory":1,"la1":30.2991,"la2":30.254,"lo1":-89.0895,"lo2":-89.0444,"dy":0.0017,"dx":0.0017,"nx":28,"ny":28,"refTime":"2023-09-10T03:00:00:Z","depth":0,"parameterNumber":2,"parameterNumberName":"U-component_of_WINDS"},"data":[0,0,0,0,0,0,0,0,0,0,0,0,0,0,0,0,0,0,0,0,0,0,0,0,0,0,0,0,0,0,0,0,0,0,0,0,0,0,0,0,0,0,0,0,0,0,0,0,0,0,0,0,0,0,0,0,0,0,-1.4182,-1.4181,0,-1.4132,-1.4132,-1.4131,-1.4085,-1.4084,-1.4084,-1.4083,-1.4032,-1.4031,-1.4031,0,0,0,0,0,0,0,0,0,0,0,0,0,-1.4239,-1.4239,-1.4182,-1.4181,-1.4181,-1.4132,-1.4132,-1.4131,-1.4085,-1.4084,-1.4084,-1.4083,-1.4032,-1.4031,-1.403,0,0,0,0,0,0,0,0,0,0,0,0,0,-1.4205,-1.4238,-1.4182,-1.4152,-1.4149,-1.4132,-1.4131,-1.4131,-1.4085,-1.4084,-1.4083,-1.4083,-1.4033,-1.4032,-1.403,-1.4039,0,0,-1.4026,-1.4026,0,0,0,0,0,0,0,0,-1.4207,-1.4203,-1.4157,-1.4154,-1.4151,-1.4114,-1.4133,-1.41,-1.4085,-1.4109,-1.4083,-1.4082,-1.406,-1.4057,-1.4049,-1.4037,-1.4035,-1.4026,-1.4026,-1.4025,-1.4025,0,0,0,0,0,0,0,-1.4209,-1.4204,-1.4162,-1.4157,-1.4153,-1.4142,-1.4136,-1.4127,-1.409,-1.4107,-1.4104,-1.4098,-1.4058,-1.405,-1.4047,-1.4034,-1.4026,-1.4025,-1.4025,-1.4024,-1.4029,-1.403,0,0,0,0,0,0,-1.4216,-1.4207,-1.4164,-1.4161,-1.4177,-1.4141,-1.4135,-1.4127,-1.409,-1.4084,-1.4099,-1.4097,-1.4053,-1.4049,-1.4045,-1.4054,-1.4025,-1.4024,-1.4023,-1.4028,-1.4029,-1.403,0,0,0,0,0,0,-1.4217,-1.4213,-1.4166,-1.4183,-1.4176,-1.4141,-1.4132,-1.4126,-1.4118,-1.4084,-1.4077,-1.4098,-1.4052,-1.4047,-1.4042,-1.4052,-1.4023,-1.4022,-1.4027,-1.4029,-1.403,-1.4072,0,0,0,0,0,0,-1.4219,-1.4213,-1.4216,-1.4183,-1.4175,-1.4162,-1.4133,-1.4126,-1.4116,-1.4112,-1.4081,-1.4075,-1.4051,-1.4044,-1.404,-1.405,-1.4021,-1.4026,-1.4028,-1.4029,-1.407,-1.4075,-1.4079,0,0,0,0,0,-1.4221,-1.4229,-1.4216,-1.4211,-1.4178,-1.4163,-1.4159,-1.4131,-1.4117,-1.412,-1.4098,-1.4076,-1.4052,-1.4044,-1.4039,-1.4049,-1.4025,-1.4027,-1.4029,-1.4067,-1.4074,-1.4079,0,0,0,0,0,0,-1.4263,-1.4224,-1.4209,-1.4207,-1.4189,-1.4155,-1.4157,-1.4138,-1.4123,-1.412,-1.4087,-1.408,-1.4078,-1.4063,-1.4055,-1.4056,-1.4036,-1.4037,-1.4066,-1.4072,-1.4076,-1.408,-1.402,0,0,0,0,0,-1.4273,-1.4264,-1.423,-1.4231,-1.4223,-1.4192,-1.4185,-1.4165,-1.4145,-1.4137,-1.4115,-1.4096,-1.4085,-1.4078,-1.4065,-1.4068,-1.4061,-1.4072,-1.4077,-1.4081,-1.4082,-1.4084,-1.4089,-1.4037,-1.4037,-1.4037,0,0,-1.4291,-1.4269,-1.4265,-1.4239,-1.4223,-1.4215,-1.4186,-1.4178,-1.4172,-1.4136,-1.4129,-1.4113,-1.409,-1.4089,-1.4088,-1.4076,-1.4096,-1.4084,-1.4087,-1.4086,-1.4087,-1.4091,-1.4096,-1.4038,-1.4038,-1.4038,0,0,-1.432,-1.4302,-1.4302,-1.4286,-1.4262,-1.4242,-1.4242,-1.4212,-1.42,-1.4193,-1.4166,-1.4159,-1.414,-1.4125,-1.4115,-1.4142,-1.4121,-1.4139,-1.4163,-1.4165,-1.4169,-1.4173,-1.4183,-1.4187,-1.414,-1.4141,-1.4141,0,-1.4346,-1.4332,-1.4304,-1.4298,-1.4289,-1.4256,-1.4256,-1.4243,-1.4216,-1.421,-1.4198,-1.4174,-1.4156,-1.4152,-1.4159,-1.4152,-1.4152,-1.4141,-1.4171,-1.4174,-1.4177,-1.4186,-1.419,-1.4143,-1.4143,-1.4142,-1.4142,0,-1.4366,-1.4357,-1.436,-1.4335,-1.4326,-1.4323,-1.4295,-1.4289,-1.4271,-1.4253,-1.4247,-1.4225,-1.4208,-1.4206,-1.4188,-1.42,-1.4194,-1.4177,-1.4155,-1.4185,-1.4193,-1.4196,-1.4146,-1.4145,-1.4145,-1.4144,0,0,-1.4417,-1.4379,-1.438,-1.4369,-1.4342,-1.4335,-1.4332,-1.4316,-1.4311,-1.4295,-1.4292,-1.4277,-1.4262,-1.4251,-1.4232,-1.4234,-1.4257,-1.4216,-1.4215,-1.4225,-1.427,-1.4282,-1.4286,-1.4244,-1.4245,-1.4245,-1.4272,0,-1.4442,-1.4433,-1.4409,-1.4408,-1.44,-1.4371,-1.4368,-1.4352,-1.4335,-1.4327,-1.4309,-1.4299,-1.428,-1.4273,-1.4274,-1.4254,-1.4266,-1.4252,-1.4241,-1.4241,-1.4247,-1.4291,-1.4303,-1.4329,-1.4275,-1.4275,-1.4275,0,-1.4468,-1.4454,-1.4453,-1.4427,-1.4423,-1.4421,-1.4405,-1.4398,-1.4379,-1.4367,-1.4356,-1.4335,-1.4331,-1.4312,-1.4307,-1.4298,-1.4293,-1.4283,-1.4283,-1.428,-1.4259,-1.4288,-1.4336,-1.434,-1.428,-1.428,-1.4279,0,-1.4506,-1.4487,-1.4484,-1.4476,-1.4446,-1.4445,-1.4433,-1.4414,-1.4406,-1.4393,-1.4388,-1.4374,-1.4367,-1.4357,-1.4334,-1.4322,-1.4331,-1.431,-1.4321,-1.4322,-1.4323,-1.4323,-1.4371,-1.4321,-1.4321,-1.4321,-1.4321,0,-1.4535,-1.4536,-1.4501,-1.4499,-1.4499,-1.4472,-1.4473,-1.4458,-1.4442,-1.4437,-1.4411,-1.4408,-1.4377,-1.4371,-1.4352,-1.4351,-1.4348,-1.4339,-1.4334,-1.434,-1.4342,-1.4335,-1.4333,-1.4322,-1.4322,-1.4322,-1.4322,0,-1.4577,-1.4554,-1.4549,-1.4522,-1.4515,-1.4516,-1.4493,-1.4491,-1.4474,-1.4469,-1.4466,-1.4439,-1.443,-1.4406,-1.4391,-1.4379,-1.4383,-1.4374,-1.4389,-1.4385,-1.4398,-1.4397,-1.4442,-1.4447,-1.4396,-1.4396,-1.4397,0,-1.4597,-1.4596,-1.457,-1.4565,-1.4554,-1.4546,-1.4539,-1.4513,-1.4506,-1.4487,-1.4487,-1.4476,-1.4466,-1.4453,-1.4432,-1.4421,-1.4412,-1.4428,-1.4409,-1.4417,-1.4412,-1.4412,-1.4412,-1.4432,-1.4433,-1.4433,-1.4434,0,-1.4634,-1.4623,-1.4613,-1.46,-1.4592,-1.4581,-1.4568,-1.4565,-1.4537,-1.4531,-1.4521,-1.4514,-1.4499,-1.4489,-1.4475,-1.4462,-1.4444,-1.444,-1.4442,-1.4449,-1.4457,-1.4453,-1.4399,-1.4439,-1.4438,-1.4438,-1.4438,-1.4437,-1.4665,-1.4664,-1.4646,-1.4636,-1.4624,-1.4613,-1.461,-1.4593,-1.4585,-1.4571,-1.4556,-1.4549,-1.4532,-1.4511,-1.4501,-1.4496,-1.4485,-1.4488,-1.4489,-1.449,-1.4493,-1.4459,-1.4493,-1.4493,-1.4493,-1.4492,-1.4492,0,-1.4701,-1.4689,-1.468,-1.4663,-1.4656,-1.464,-1.4625,-1.4621,-1.4614,-1.4601,-1.4592,-1.4582,-1.4572,-1.4552,-1.4541,-1.4541,-1.4532,-1.4539,-1.4538,-1.4536,-1.4503,-1.4502,-1.4546,-1.4546,-1.4546,-1.4546,-1.4546,-1.4546,-1.4719,-1.4717,-1.4704,-1.4696,-1.4684,-1.4676,-1.4669,-1.466,-1.4648,-1.4639,-1.4631,-1.4618,-1.4602,-1.459,-1.4581,-1.4576,-1.4573,-1.4583,-1.4574,-1.4543,-1.4538,-1.4533,-1.4532,-1.4582,-1.4582,-1.4608,-1.4608,-1.4608]},{"header":{"parameterUnit":"m.s-1","parameterCategory":1,"la1":30.2991,"la2":30.254,"lo1":-89.0895,"lo2":-89.0444,"dy":0.0017,"dx":0.0017,"nx":28,"ny":28,"refTime":"2023-09-10T03:00:00:Z","depth":0,"parameterNumber":3,"parameterNumberName":"V-component_of_WINDS"},"data":[0,0,0,0,0,0,0,0,0,0,0,0,0,0,0,0,0,0,0,0,0,0,0,0,0,0,0,0,0,0,0,0,0,0,0,0,0,0,0,0,0,0,0,0,0,0,0,0,0,0,0,0,0,0,0,0,0,0,3.1746,3.1746,0,3.1785,3.1786,3.1786,3.186,3.1861,3.1863,3.1864,3.1901,3.19,3.19,0,0,0,0,0,0,0,0,0,0,0,0,0,3.173,3.173,3.1746,3.1746,3.1747,3.1785,3.1786,3.1786,3.186,3.1861,3.1863,3.1865,3.1901,3.1901,3.19,0,0,0,0,0,0,0,0,0,0,0,0,0,3.175,3.173,3.1746,3.1788,3.1792,3.1785,3.1786,3.1786,3.1859,3.1861,3.1863,3.1865,3.1901,3.1901,3.19,3.1854,0,0,3.1898,3.1898,0,0,0,0,0,0,0,0,3.1749,3.1751,3.1781,3.1785,3.179,3.182,3.1794,3.1809,3.1859,3.1834,3.1864,3.1866,3.1872,3.1874,3.1877,3.1856,3.1857,3.1898,3.1898,3.1898,3.1898,0,0,0,0,0,0,0,3.1747,3.1749,3.1761,3.1782,3.1787,3.1804,3.1809,3.1797,3.184,3.1836,3.1841,3.1845,3.1875,3.1877,3.1878,3.1858,3.1898,3.1898,3.1898,3.1897,3.1801,3.1798,0,0,0,0,0,0,3.174,3.1748,3.176,3.1763,3.1774,3.1803,3.1808,3.1808,3.184,3.1848,3.1843,3.1849,3.1877,3.1878,3.1879,3.1827,3.1898,3.1897,3.1897,3.1803,3.18,3.1798,0,0,0,0,0,0,3.174,3.1741,3.1758,3.1757,3.176,3.1801,3.1799,3.1808,3.181,3.1846,3.1854,3.1838,3.1878,3.188,3.186,3.1829,3.1897,3.1897,3.1805,3.1802,3.1799,3.1722,0,0,0,0,0,0,3.1739,3.174,3.1724,3.1756,3.176,3.1739,3.1798,3.1807,3.1809,3.1816,3.1843,3.185,3.188,3.186,3.1859,3.183,3.1896,3.1808,3.1804,3.18,3.1727,3.1716,3.1707,0,0,0,0,0,3.1738,3.17,3.1722,3.1723,3.174,3.1737,3.1739,3.1776,3.1807,3.179,3.1813,3.1849,3.1833,3.1858,3.1857,3.1827,3.181,3.1805,3.18,3.1732,3.1719,3.1707,0,0,0,0,0,0,3.1661,3.1705,3.173,3.1701,3.1715,3.1749,3.1729,3.1761,3.1766,3.1772,3.1817,3.1822,3.1796,3.181,3.1836,3.1784,3.1827,3.1822,3.1776,3.1763,3.1753,3.175,3.1896,0,0,0,0,0,3.1641,3.1636,3.1674,3.1644,3.165,3.1688,3.1688,3.1716,3.1731,3.1737,3.1759,3.1772,3.177,3.1768,3.1768,3.173,3.1737,3.1709,3.1699,3.1691,3.1685,3.1666,3.1654,3.1781,3.1781,3.1781,0,0,3.1599,3.1622,3.1616,3.1629,3.1643,3.1636,3.1693,3.1682,3.1677,3.1735,3.1718,3.1734,3.1751,3.1722,3.171,3.1733,3.1652,3.1684,3.1677,3.1676,3.1659,3.1647,3.1636,3.1777,3.1778,3.1779,0,0,3.1518,3.1536,3.1513,3.1526,3.1547,3.1573,3.1568,3.1597,3.1611,3.1594,3.1638,3.1632,3.1628,3.1638,3.1643,3.1567,3.1599,3.1566,3.1512,3.1492,3.1482,3.1474,3.1445,3.1435,3.156,3.156,3.156,0,3.1463,3.1454,3.1497,3.1484,3.1488,3.1543,3.152,3.153,3.1549,3.155,3.1576,3.1572,3.1588,3.1561,3.1543,3.1545,3.1539,3.1562,3.1481,3.1472,3.1465,3.1438,3.1428,3.1556,3.1556,3.1557,3.1557,0,3.1385,3.1378,3.1357,3.1376,3.1378,3.136,3.1399,3.1396,3.1423,3.1446,3.1428,3.1449,3.1454,3.145,3.1477,3.1427,3.1441,3.1473,3.1517,3.1447,3.1423,3.1414,3.1549,3.1551,3.1552,3.1553,0,0,3.1255,3.1299,3.129,3.1299,3.1327,3.1322,3.1306,3.1313,3.1309,3.132,3.1307,3.1303,3.1333,3.1338,3.1367,3.135,3.1287,3.1384,3.1385,3.1364,3.1233,3.1208,3.1196,3.131,3.1308,3.1306,3.1231,0,3.118,3.1156,3.1194,3.1161,3.1155,3.1207,3.1193,3.1208,3.1229,3.1226,3.1249,3.1245,3.1286,3.1289,3.1275,3.1298,3.1261,3.1304,3.1296,3.1296,3.1289,3.1183,3.1157,3.1085,3.1222,3.1221,3.122,0,3.1088,3.1096,3.1063,3.1093,3.1092,3.1079,3.1088,3.1085,3.1102,3.1119,3.1125,3.1159,3.1145,3.1188,3.1168,3.1197,3.1196,3.1207,3.1205,3.1205,3.1252,3.1179,3.1063,3.1052,3.1205,3.1207,3.1208,0,3.0995,3.0999,3.0979,3.0986,3.102,3.101,3.1023,3.1043,3.1045,3.1052,3.1054,3.1059,3.1061,3.1064,3.1098,3.1127,3.1074,3.1121,3.1086,3.1085,3.1071,3.1071,3.0952,3.1072,3.1072,3.1073,3.1073,0,3.0906,3.0883,3.0938,3.0926,3.0902,3.0946,3.092,3.0939,3.0957,3.0948,3.0994,3.0984,3.1031,3.1026,3.1053,3.1032,3.1033,3.1045,3.1052,3.104,3.1038,3.1039,3.1045,3.107,3.107,3.1071,3.1071,0,3.0798,3.0834,3.0816,3.0851,3.086,3.084,3.0869,3.0859,3.0884,3.0872,3.0872,3.091,3.0907,3.0942,3.0945,3.0963,3.0929,3.0946,3.0924,3.0928,3.0891,3.0894,3.0768,3.0753,3.0883,3.0882,3.0881,0,3.0739,3.0723,3.0756,3.0754,3.0766,3.0763,3.0765,3.0808,3.0808,3.0827,3.0814,3.0815,3.0818,3.0811,3.0838,3.0841,3.0857,3.0813,3.0858,3.0846,3.0855,3.0855,3.0854,3.0803,3.0801,3.08,3.0799,0,3.0628,3.0647,3.0649,3.0657,3.0659,3.0667,3.0678,3.0674,3.072,3.0718,3.0717,3.0719,3.0724,3.0724,3.0732,3.0745,3.0779,3.0785,3.0777,3.0764,3.0751,3.0757,3.0897,3.0787,3.0788,3.0789,3.079,3.079,3.0542,3.053,3.0552,3.0553,3.0566,3.0575,3.0567,3.0592,3.0591,3.0599,3.0624,3.0618,3.0636,3.0651,3.0661,3.0656,3.0677,3.0666,3.0663,3.0659,3.0652,3.0753,3.0657,3.0658,3.0658,3.0658,3.0659,0,3.0433,3.045,3.0451,3.0465,3.0466,3.05,3.0514,3.0511,3.0506,3.0521,3.0523,3.0521,3.0522,3.0549,3.0553,3.0543,3.0559,3.0543,3.0543,3.0545,3.0633,3.0639,3.053,3.053,3.053,3.053,3.053,3.053,3.0377,3.0358,3.038,3.0368,3.0385,3.0381,3.0386,3.0394,3.0406,3.0402,3.0403,3.0422,3.0441,3.0447,3.0449,3.0457,3.0455,3.0433,3.0446,3.0527,3.0539,3.0551,3.0557,3.0433,3.0433,3.036,3.0359,3.0359]}]]